#timestamp,LO_Frequency,Hit,StdDev 
1509058815.2,286047007.4,N
1509058835.1,286047005.6,N
1509058836.0,286047005.6,N
1509058855.8,286047003.0,N
1509058875.6,286047004.8,N
1509058895.5,286047007.6,Y
1509058915.3,286047003.7,P
1509058935.1,286047001.8,P
1509058955.9,286047000.9,N
1509058975.7,286047003.3,N
1509058995.6,286047010.8,Y
1509059015.4,286047013.7,P
1509059035.3,286047015.7,N
1509059055.1,286047019.9,P
1509059075.8,286047022.8,Y
1509059095.7,286047013.5,P
1509059115.5,286047013.0,P
1509059135.3,286047013.3,P
1509059155.2,286047012.6,Y
1509059175.0,286047003.0,P
1509059175.9,286047003.0,N
1509059195.8,286047004.4,N
1509059215.6,286046999.1,N
1509059235.4,286047005.2,N
1509059255.3,286047007.0,N
1509059275.1,286047007.3,N
1509059276.0,286047007.3,N
1509059295.8,286047005.8,N
1509059315.7,286047005.9,N
1509059335.5,286047002.9,N
1509059355.3,286047005.7,N
1509059375.2,286047002.1,N
1509059395.9,286047003.6,N
1509059415.7,286047006.0,N
1509059435.6,286047007.3,N
1509059455.4,286047003.7,N
1509059475.2,286047001.5,N
1509059495.1,286047001.0,N
1509059496.0,286047001.0,N
1509059515.8,286046999.8,N
1509059535.6,286047000.6,N
1509059555.5,286047001.2,N
1509059575.3,286047000.6,N
1509059595.1,286047004.3,N
1509059615.9,286046999.4,N
1509059635.7,286046997.2,N
1509059655.5,286046995.2,N
1509059675.4,286046998.4,N
1509059695.2,286046995.9,N
1509059715.0,286046996.1,N
1509059715.9,286046996.1,N
1509059735.8,286046993.3,N
1509059755.6,286046993.5,N
1509059775.4,286046992.5,N
1509059795.3,286046992.0,N
1509059815.1,286046992.6,N
1509059835.8,286046993.5,N
1509059855.7,286046994.9,N
1509059875.5,286046996.1,N
1509059895.3,286046999.3,N
1509059915.2,286046998.0,N
1509059935.0,286046993.0,N
1509059935.9,286046993.0,N
1509059955.7,286046989.5,N
1509059975.6,286046986.7,Y
1509059995.4,286046985.1,P
1509060015.3,286046979.2,P
1509060035.1,286046976.9,P
1509060036.0,286046976.9,N
1509060055.8,286046976.8,Y
1509060075.7,286046993.2,P
1509060095.5,286046992.8,N
1509060115.3,286046992.3,N
1509060135.2,286046988.6,N
1509060155.9,286046987.1,Y
1509060175.7,286046999.3,P
1509060195.6,286046997.9,N
1509060215.4,286046995.9,N
1509060235.2,286046994.6,N
1509060255.1,286046994.4,N
1509060256.0,286046994.4,N
1509060275.8,286046995.8,N
1509060295.6,286046996.4,N
1509060315.5,286046993.9,N
1509060335.3,286046994.1,N
1509060355.1,286046994.8,N
1509060375.9,286046994.5,N
1509060395.7,286046994.1,N
1509060415.5,286046994.2,N
1509060435.4,286046992.5,Y
1509060455.2,286046995.0,P
1509060475.0,286046998.7,P
1509060476.0,286046998.7,N
1509060495.8,286046999.3,N
1509060515.6,286046997.5,N
1509060535.5,286046995.3,N
1509060555.3,286046998.0,N
1509060575.1,286046996.8,N
1509060595.9,286046997.8,N
1509060615.7,286046999.2,N
1509060635.5,286046995.9,N
1509060655.4,286046992.3,Y
1509060675.2,286046995.1,P
1509060695.0,286046997.6,N
1509060695.9,286046997.6,N
1509060715.8,286046997.7,N
1509060735.6,286046997.6,N
1509060755.4,286046997.9,N
1509060775.3,286046997.5,N
1509060795.1,286046996.6,Y
1509060815.9,286046996.4,P
1509060835.7,286046997.6,P
1509060855.5,286047004.5,P
1509060875.4,286047012.7,Y
1509060895.2,286047021.1,P
1509060915.0,286047024.7,N
1509060915.9,286047024.7,N
1509060935.8,286047025.9,N
1509060955.6,286047029.6,N
1509060975.4,286047030.3,N
1509060995.3,286047034.4,Y
1509061015.1,286047012.7,P
1509061035.8,286047018.1,P
1509061055.7,286047018.4,P
1509061075.5,286047017.2,Y
1509061095.3,286047000.9,P
1509061115.2,286047004.8,N
1509061135.0,286047003.1,N
1509061135.9,286047003.1,N
1509061155.7,286047007.2,N
1509061175.6,286047004.3,N
1509061195.4,286047000.1,N
1509061215.2,286046999.9,N
1509061235.1,286047000.6,N
1509061236.0,286047000.6,N
1509061255.8,286046999.1,N
1509061275.6,286046998.4,N
1509061295.5,286046996.6,N
1509061315.3,286046996.5,N
1509061335.2,286046997.1,N
1509061355.9,286046998.9,N
1509061375.7,286046996.9,N
1509061395.6,286046998.8,N
1509061415.4,286047001.1,N
1509061435.2,286047000.7,N
1509061455.1,286046996.7,N
1509061456.0,286046996.7,N
1509061475.8,286046995.4,N
1509061495.6,286046992.3,N
1509061515.5,286046992.3,N
1509061535.3,286046993.5,N
1509061555.1,286046996.1,N
1509061575.9,286046996.0,N
1509061595.7,286046997.6,N
1509061615.5,286046996.1,N
1509061635.4,286046994.4,N
1509061655.2,286046990.9,N
1509061675.0,286046991.5,N
1509061675.9,286046991.5,N
1509061695.8,286046991.0,N
1509061715.6,286046992.9,N
1509061735.4,286046990.7,N
1509061755.3,286046992.9,N
1509061775.1,286046985.8,Y
1509061795.8,286046987.1,P
1509061815.7,286046985.2,P
1509061835.5,286046981.8,P
1509061855.4,286046978.8,Y
1509061875.2,286046987.9,P
1509061895.0,286046989.8,P
1509061895.9,286046989.8,P
1509061915.8,286046985.9,Y
1509061935.6,286046995.6,P
1509061955.4,286046995.5,N
1509061975.3,286046995.4,N
1509061995.1,286046995.5,N
1509062015.8,286046996.3,N
1509062035.7,286046995.6,N
1509062055.5,286046990.1,Y
1509062075.3,286046993.5,P
1509062095.2,286046993.9,P
1509062115.0,286046994.2,P
1509062115.9,286046994.2,Y
1509062135.8,286047000.5,P
1509062155.6,286046999.1,N
1509062175.4,286046997.2,N
1509062195.3,286046999.2,N
1509062215.1,286047001.0,N
1509062216.0,286047001.0,N
1509062235.8,286046996.5,N
1509062255.7,286046996.0,N
1509062275.5,286046998.7,N
1509062295.3,286046998.3,N
1509062315.2,286046996.5,N
1509062335.9,286047000.6,N
1509062355.7,286047002.5,N
1509062375.6,286047002.6,N
1509062395.4,286046998.3,N
